Skip Page Navigation
NASA JPL Caltech
NASA Logo - Jet Propulsion Laboratory + View the NASA Portal
+ Center for Near-Earth Object Studies
JPL Home Earth Solar System Stars & Galaxies Technology
JPL Solar System Dynamics
BODIES ORBITS EPHEMERIDES TOOLS PHYSICAL DATA DISCOVERY FAQ SITE MAP
JPL Small-Body Database Browser
Search: [ help ]  
123702 (2000 YE109)
Classification: Main-belt Asteroid          SPK-ID: 2123702
Ephemeris | Orbit Diagram | Orbital Elements | Mission Design | Physical Parameters | Discovery Circumstances | Close-Approach Data ]

[ show orbit diagram ]
Orbital Elements at Epoch 2459000.5 (2020-May-31.0) TDB
Reference: JPL 20 (heliocentric ecliptic J2000)
 Element Value Uncertainty (1-sigma)   Units 
e .1903313465512996 4.5812e-08  
a 3.055753412340207 2.3902e-08 au
q 2.474147750640767 1.4811e-07 au
i 11.96965029222459 5.2053e-06 deg
node 97.86814193024325 2.194e-05 deg
peri 253.5515505251687 2.6093e-05 deg
M 326.4046046763485 1.2869e-05 deg
tp 2459182.576182886759
(2020-Nov-29.07618289)
7.0068e-05 TDB
period 1951.083629401057
5.34
2.2892e-05
6.267e-08
d
yr
n .184512849462282 2.1649e-09 deg/d
Q 3.637359074039648 2.8451e-08 au
  Orbit Determination Parameters
   # obs. used (total)      481  
   data-arc span      7627 days (20.88 yr)  
   first obs. used      1999-09-13  
   last obs. used      2020-07-31  
   planetary ephem.      DE431  
   SB-pert. ephem.      SB431-N16  
   condition code      0  
   norm. resid. RMS      .51107  
   source      ORB  
   producer      Otto Matic  
   solution date      2020-Aug-25 10:21:22  

Additional Information
 Earth MOID = 1.50039 au 
 Jupiter MOID = 1.91273 au 
 T_jup = 3.175 
[ show covariance matrix ]

Ephemeris | Orbit Diagram | Orbital Elements | Mission Design | Physical Parameters | Discovery Circumstances | Close-Approach Data ]

Physical Parameter Table
Parameter Symbol Value Units Sigma Reference Notes
absolute magnitude H 15.0   n/a MPO453710  

123702 (2000 YE109)          Discovered 2000-Dec-30 by LINEAR at Socorro
Reference: 20060314/Numbers.arcLast Updated: 2006-03-23

[ show close-approach data ]
Alternate Designations
 2000 YE109 = 2004 PQ95 
Ephemeris | Orbit Diagram | Orbital Elements | Mission Design | Physical Parameters | Discovery Circumstances | Close-Approach Data ]
ABOUT SSD CREDITS/AWARDS PRIVACY/COPYRIGHT GLOSSARY LINKS
FirstGov 2020-Nov-01 01:19 UT
(server date/time)  
NASA Home Page
Site Manager:   Ryan S. Park
Webmaster  Alan B. Chamberlin